EAGLEEYE

Last updated on Mon Sep 16 2024 00:02:03 GMT+0000 (Coordinated Universal Time)

1 60508U 24149AS 24258.88946654 .00025299 00000+0 11961-2 0 9996 2 60508 97.4389 334.0090 0005791 47.9719 312.2007 15.19360045 4417
UTC large
Height (km)
Speed (km/s)
/
Latitude / Longitude
Inclination (degrees)
Orbital Period (minutes)
Azimuth
Elevation
Range (km)
Doppler Factor

Next 0 passes for location: London (51.5072 / 0.1276)

Sorry there are no passes over London.